Language selection

My Weather Profile Weather Topics  | 

Pacific - North Coast: Past 24 Hour Conditions

 

Sandspit Airport

06:00 AM PST 05 December 2021
Disclaimer

This table is a summary of hourly weather conditions for the past 24 hours.
Please note that these observations might not always be representative of weather conditions over their associated marine area.

Date / Time
(PST)
Wind(knots) Conditions Visibility(km) Pressure(kPa) Air tempC) Relative humidity(%) Dew pointC)
05 December 2021
6:00 WSW 7 Cloudy 16 103.5 1 88 -1
5:00 WSW 8 Mostly Cloudy 16 103.5 1 87 -1
4:00 WSW 4 Clear 16 103.6 1 88 -1
3:00 WSW 7 Mainly Clear 16 103.6 1 89 -1
2:00 W 3 Mainly Clear 16 103.5 1 83 -2
1:00 W 9 Clear 16 103.5 1 89 -1
0:00 W 9 Clear 16 103.4 1 88 -1
04 December 2021
23:00 W 9 Clear 16 103.3 1 88 0
22:00 W 11 Clear 16 103.2 1 91 0
21:00 W 12 Clear 16 103.1 1 92 0
20:00 W 12 Clear 16 103.0 2 90 0
19:00 W 9 Clear 16 103.0 2 80 -1
18:00 WNW 8 Clear 16 102.9 2 76 -2
17:00 NW 9 Clear 16 102.8 2 75 -2
16:00 NNW 9 Mainly Sunny 16 102.7 3 72 -2
15:00 WSW 7 Sunny 16 102.5 3 76 -1
14:00 W 8 Sunny 16 102.4 3 79 -1
13:00 W 11 Sunny 16 102.3 3 82 0
12:00 WSW 10 Sunny 16 102.3 2 86 0
11:00 W 12 Sunny 16 102.2 2 81 -1
10:00 W 11 Partly Cloudy 16 102.1 1 88 -1
9:00 W 14 Partly Cloudy 16 102.0 1 86 -1
8:00 WSW 11 Clear 16 101.9 1 89 -1
7:00 W 12 Mainly Clear 16 101.9 1 91 0
6:00 WNW 10 Precipitation 16 101.9 1 84 -1

Zoom-in to make a selection

Map of Pacific - North Coast marine weather areas Middle Nomad - 46004 South Nomad - 46036 Dixon Entrance Central - 46145 South Moresby - 46147 Nanakwa Shoal - 46181 North Hecate Strait - 46183 North Nomad - 46184 South Hecate Strait - 46185 West Sea Otter - 46204 West Dixon Entrance - 46205 East Dellwood - 46207 West Moresby - 46208 Sartine Island Cape St.James Kindakun Rocks Langara Island Masset Municipal Airport Rose Spit Sandspit Airport Bella Bella Airport Bella Coola Airport Bonilla Island Cathedral Point Cumshewa Island Grey Islet Holland Rock Lucy Islands Lightstation Prince Rupert Airport
Legend:
buoy Buoy
land station Land Station

Pacific - North Coast Area

Another Region

What we are doing

Features

Hello Weather

Hello Weather: our upgraded telephone weather service is here. 1-833-794-3556 or 1-833-79HELLO.

Date modified: